Volver al catálogo

STARLINK-35394

ActivoComunicacionesVLEO
NORAD 66023·PAYLOAD·🇺🇸 United States

Lanzado Oct 16, 2025 desde Cape Canaveral Space Force Station

Loading…

Próximos Pases (próximas 24 horas)

TLE

ActualizadoSource: CelesTrak SupGP

Época: Sep 14, 2026, 22:44 UTC

1 66023C 25232U   26257.94770833  .00044697  00000+0  13211-2 0  2570
2 66023  53.1570 303.4002 0001356  92.0170 205.8037 15.34356623    10

Sigue STARLINK-35394 en tiempo real con AllMySat

Download on the App Store